Location: Buckeye Ditch
(40.9104°N, 122.9517°W)
Time: 23:55:42
(UTC+00:00)

ISS - Visible Passes

Search period start: 19 June 2024 00:00
Search period end: 29 June 2024 00:00
Orbit: 411 x 425 km, 51.6° (Epoch: 19 June)

Date Brightness Start Highest point End Pass type
(mag) Time Alt. Az. Time Alt. Az. Time Alt. Az.
20 Jun -1.7 11:52:11 10° S 11:54:39 19° SE 11:57:08 10° E visible
21 Jun -1.2 11:05:49 10° SSE 11:06:53 11° SE 11:07:56 10° ESE visible
22 Jun -3.4 11:52:04 11° SW 11:55:12 57° SE 11:58:30 10° ENE visible
23 Jun -2.6 11:05:54 23° S 11:07:15 32° SE 11:10:16 10° ENE visible
24 Jun -1.8 10:19:38 18° SE 10:19:38 18° SE 10:21:45 10° E visible
24 Jun -3.2 11:52:36 10° WSW 11:55:51 50° NNW 11:59:07 10° NE visible
25 Jun -3.8 11:06:12 30° WSW 11:07:44 84° NW 11:11:04 10° NE visible
26 Jun -3.5 10:19:47 54° SE 10:19:47 54° SE 10:22:55 10° ENE visible
26 Jun -1.9 11:53:47 10° W 11:56:35 24° NNW 11:59:25 10° NE visible
27 Jun -1.5 09:33:17 19° E 09:33:17 19° E 09:34:34 10° ENE visible
27 Jun -2.4 11:06:11 17° W 11:08:18 34° NNW 11:11:24 10° NE visible
28 Jun -3.3 10:19:37 48° WNW 10:20:02 52° NNW 10:23:19 10° NE visible
28 Jun -1.1 11:55:12 10° NW 11:57:23 16° NNW 11:59:34 10° NNE visible
